This demonstration page uses our WeatherBlox Daily Observations layout. Learn more.

Left ArrowRight Arrow

41.45428, -70.60364

Hourly Observations for January 28, 2022

Temp ( °F °C ) Dew Point ( °F °C ) Humidity (%) Winds ( mph kmh ) Pressure ( in mb ) Visibility ( mi km ) Precip ( " mm )
12:53 am 00:53 Cloudy 34 1.1 24 -4.4 67 67 SW 12 19 30.20 1023 10 16 0.00 0.00
1:53 am 01:53 Mostly Clear 33 0.6 25 -3.9 72 72 SW 9 15 30.18 1022 10 16 0.00 0.00
2:53 am 02:53 Cloudy 36 2.2 27 -2.8 70 70 SW 7 11 30.15 1021 10 16 0.00 0.00
3:15 am 03:15 Cloudy 35 1.7 27 -2.8 72 72 W 8 13 30.16 1021 10 16 0.00 0.00
3:48 am 03:48 Cloudy 36 2 27 -3 70 70 W 10 17 30.15 1021 10 16 0.00 0.00
3:53 am 03:53 Cloudy 35 1.7 26 -3.3 70 70 W 10 17 30.15 1021 10 16 0.00 0.00
4:53 am 04:53 Cloudy 35 1.7 22 -5.6 59 59 W 9 15 30.16 1021 10 16 0.00 0.00
5:53 am 05:53 Mostly Cloudy 33 0.6 23 -5 66 66 W 7 11 30.15 1021 10 16 0.00 0.00
6:22 am 06:22 Cloudy 32 0 24 -4.4 73 73 SW 3 6 30.16 1021 10 16 0.00 0.00
6:53 am 06:53 Cloudy 33 0.6 25 -3.9 72 72 WSW 3 6 30.16 1022 10 16 0.00 0.00
7:53 am 07:53 Cloudy 33 0.6 27 -2.8 78 78 SW 3 6 30.16 1021 10 16 0.00 0.00
8:53 am 08:53 Cloudy 36 2.2 26 -3.3 67 67 W 5 7 30.15 1021 10 16 0.00 0.00
9:53 am 09:53 Cloudy 36 2.2 25 -3.9 64 64 W 5 7 30.15 1021 10 16 0.00 0.00
10:53 am 10:53 Cloudy 37 2.8 26 -3.3 65 65 VRB 5 7 30.14 1021 10 16 0.00 0.00
11:53 am 11:53 Cloudy 38 3.3 24 -4.4 57 57 NW 8 13 30.11 1020 10 16 0.00 0.00
12:53 pm 12:53 Cloudy 38 3.3 25 -3.9 60 60 W 7 11 30.09 1019 10 16 0.00 0.00
1:53 pm 13:53 Cloudy 36 2.2 27 -2.8 70 70 W 7 11 30.09 1019 10 16 0.00 0.00
2:53 pm 14:53 Cloudy 36 2.2 27 -2.8 70 70 NW 7 11 30.09 1019 10 16 0.00 0.00
3:53 pm 15:53 Cloudy 34 1.1 27 -2.8 76 76 NNW 7 11 30.08 1019 9 14 0.00 0.00
4:53 pm 16:53 Cloudy 32 0 28 -2.2 85 85 N 6 9 30.09 1019 7 11 0.00 0.00
5:53 pm 17:53 Cloudy 32 0 28 -2.2 85 85 N 5 7 30.08 1019 8 13 0.00 0.00
6:53 pm 18:53 Cloudy 32 0 28 -2.2 85 85 NNE 6 9 30.07 1018 9 14 0.00 0.00
7:53 pm 19:53 Cloudy 33 0.6 29 -1.7 85 85 ENE 9 15 30.05 1018 9 14 0.00 0.00
8:53 pm 20:53 Cloudy 33 0.6 28 -2.2 82 82 NE 13 20 30.04 1017 10 16 0.00 0.00
9:27 pm 21:27 Cloudy with Light Snow 32 0 28 -2.2 85 85 NE 9 15 30.03 1017 3 4 0.00 0.00
9:39 pm 21:39 Cloudy with Light Snow 32 0 28 -2.2 85 85 NE 12 19 30.02 1017 2 2 0.00 0.00
9:53 pm 21:53 Mostly Cloudy with Light Snow 32 0 29 -1.7 88 88 NNE 12 19 30.02 1017 1 2 0.00 0.00
10:20 pm 22:20 Cloudy with Light Snow 32 0 30 -1.1 92 92 NNE 12 19 29.99 1016 2 3 0.00 0.00
10:22 pm 22:22 Cloudy with Light Snow 32 0 30 -1.1 92 92 NNE 14 22 29.99 1016 2 3 0.00 0.00
10:53 pm 22:53 Cloudy with Light Snow 32 0 31 -0.6 96 96 NE 14 22 29.98 1015 1 2 0.00 0.00
11:42 pm 23:42 Cloudy with Light Snow 33 0.6 32 0 96 96 NE 13 20 29.95 1014 1 1 0.01 0.25
11:53 pm 23:53 Cloudy with Light Snow 33 0.6 32 0 96 96 NE 14 22 29.94 1014 1 1 0.02 0.51

Powered by AerisWeather